Location: Newark
(44.1667°N, 8.2500°E)
Time: 15:12:42
(UTC+00:00)

A-11 Canister half - Visible Passes

Search period start: 09 December 2019 00:00
Search period end: 19 December 2019 00:00
Orbit: 1515 x 1685 km, 47.2° (Epoch: 08 December)

Date Brightness Start Highest point End Pass type
(mag) Time Alt. Az. Time Alt. Az. Time Alt. Az.
09 Dec 9.3 16:41:01 10° WNW 16:51:05 84° SSW 17:01:17 10° ESE visible
09 Dec 10.2 18:46:25 10° WNW 18:55:23 38° SW 19:03:57 11° SSE visible
10 Dec 9.3 16:18:04 10° WNW 16:28:07 86° SSW 16:38:20 10° ESE visible
10 Dec 10.2 18:23:24 10° WNW 18:32:31 40° SW 18:41:40 10° SSE visible
11 Dec 10.1 18:00:25 10° WNW 18:09:38 42° SW 18:18:55 10° SSE visible
11 Dec 11.4 20:11:19 10° WSW 20:12:34 10° WSW 20:13:50 10° SW visible
12 Dec 10.1 17:37:25 10° WNW 17:46:45 45° SW 17:56:09 10° SSE visible
12 Dec 11.4 19:46:47 10° WSW 19:49:46 12° WSW 19:52:46 10° SW visible
13 Dec 10.1 17:14:27 10° WNW 17:23:51 47° SW 17:33:22 10° SSE visible
13 Dec 11.4 19:22:59 10° W 19:26:58 13° WSW 19:30:58 10° SW visible
14 Dec 10.1 16:51:29 10° WNW 17:00:57 50° SW 17:10:34 10° SSE visible
14 Dec 11.4 18:59:26 10° W 19:04:10 14° WSW 19:08:54 10° SSW visible
15 Dec 10.1 16:28:32 10° WNW 16:38:04 52° SW 16:47:45 10° SE visible
15 Dec 11.4 18:36:01 10° W 18:41:21 16° WSW 18:46:43 10° SSW visible
16 Dec 10.0 16:05:34 10° WNW 16:15:09 55° SW 16:24:55 10° SE visible
16 Dec 11.4 18:12:41 10° W 18:18:32 17° SW 18:24:24 10° SSW visible
17 Dec 11.4 17:49:26 10° W 17:55:42 19° SW 18:02:03 10° SSW visible
18 Dec 11.5 17:26:14 10° W 17:32:53 20° SW 17:39:36 10° S visible
